User: anonymous   Login
Location: Baix
(44.7118°N, 4.7648°E)
Time: 17:31:30
(UTC+00:00)
Language:

Vanguard 2 Rocket - Orbit

View from above orbital plane
View from above orbital plane
View from above satellite
View from above satellite

Ground track
Ground track

The orbit data is extracted from the following two-line orbital elements,

1    12U 59001B   20339.05727757  .00000383  00000-0  20335-3 0  9995
2    12  32.9094 117.5530 1667023 247.6519  93.9417 11.44366353541989
Epoch (UTC): 04 December 2020 01:22:28
Eccentricity: 0.1667023
inclination: 32.9094°
perigee height: 553 km
apogee height: 3326 km
right ascension of ascending node: 117.5530°
argument of perigee: 247.6519°
revolutions per day: 11.44366353
mean anomaly at epoch: 93.9417°
orbit number at epoch: 54198

The dashed part of the orbit path shows where the satellite is in the earth's shadow,  

DLR